Dewpoint
36 37 37 36 34 34 34 35 36 37 37 37 37 38 38 38 37 37 37 37 36 36 37 37 36 36 36 37 38 37 36 36 34 34 35 35 34 34 33 36 38 39 39
34 34 35 37 37 37 36 36 36 36 37 37 37 37 37 37 37 37 37 36 36 36 37 37 37 35 37 37 37 36 36 36 36 34 35 35 35 36 35 35 35 33 35
32 33 36 37 37 38 38 37 37 36 36 37 37 37 38 38 38 38 37 37 37 37 37 37 37 37 37 37 37 37 37 36 36 36 35 36 37 36 36 36 35 36 35
32 32 35 35 36 36 35 35 36 36 36 37 38 38 39 39 39 39 38 38 38 38 38 38 37 37 37 38 37 37 37 37 37 36 36 36 36 37 36 36 36 35 35
31 31 34 34 34 34 34 34 34 35 35 36 37 38 39 39 39 39 40 39 39 38 39 38 39 39 42 41 37 38 38 37 37 36 36 36 37 37 36 39 38 39 38
32 32 35 34 34 36 35 34 34 34 34 34 36 37 38 38 41 43 43 40 40 39 39 39 39 42 43 45 45 45 40 37 37 37 36 37 36 39 40 38 38 36 37
32 33 33 34 35 37 36 35 35 34 33 33 34 35 36 38 41 44 45 44 41 40 39 39 38 37 41 40 43 45 46 46 43 39 37 38 39 39 39 34 34 36 38
34 34 34 35 36 36 36 36 36 34 35 35 35 36 36 36 40 43 44 45 44 43 41 40 39 39 39 40 40 39 39 41 43 44 42 40 41 41 40 39 37 35 37
35 36 36 37 37 37 38 39 37 35 36 37 36 37 36 36 40 42 42 42 43 44 43 43 42 41 42 43 42 40 39 40 41 44 46 47 47 45 42 40 36 35 35
37 38 38 38 37 38 39 39 38 36 37 37 37 37 38 38 41 42 41 40 41 41 42 42 44 44 45 45 44 44 42 42 41 41 41 44 46 46 47 41 39 36 37
39 40 39 39 39 39 40 39 39 39 39 39 38 39 38 38 39 41 42 40 41 40 40 40 40 43 44 45 46 46 44 44 44 43 41 40 40 41 42 43 39 38 38
40 39 39 40 39 38 40 40 40 39 39 39 38 39 39 39 40 41 43 43 43 42 41 41 42 44 45 46 46 47 47 47 46 44 41 40 39 39 40 41 42 39 41
39 40 40 40 39 40 40 41 40 40 39 38 38 38 38 38 39 41 42 44 44 44 44 45 45 45 46 45 46 45 45 45 44 44 43 41 40 40 40 39 41 39 40
40 40 40 39 40 40 40 40 40 39 39 39 39 38 38 38 37 38 38 39 40 41 42 42 43 44 44 43 42 41 40 41 42 42 42 43 42 39 38 38 38 38 37
39 39 39 39 39 39 39 40 39 40 40 40 39 39 38 37 39 42 41 41 41 41 41 40 39 39 39 39 39 38 38 39 40 41 42 43 40 39 38 37 36 36 36
38 39 39 40 39 39 38 38 39 40 41 42 43 43 40 40 41 41 40 40 40 39 38 36 35 35 35 36 36 37 39 39 39 40 41 41 40 38 37 36 35 35 34
38 38 39 39 38 38 37 36 36 37 37 39 39 39 39 39 38 38 37 36 35 34 32 32 32 32 32 32 33 35 35 36 37 38 39 39 40 39 39 36 35 34 34
37 39 39 38 37 37 36 35 35 34 34 35 36 38 37 37 37 36 36 34 31 32 32 31 30 29 29 30 31 31 32 34 36 37 38 39 39 39 38 37 35 34 34
37 37 37 37 37 36 36 35 34 34 34 34 35 34 34 35 36 34 34 31 31 29 28 28 28 29 29 31 32 34 34 33 33 35 36 37 39 39 38 38 36 37 36
37 38 39 37 36 34 34 34 33 33 34 34 33 33 33 34 32 30 30 29 28 28 28 28 29 31 31 33 33 34 34 33 33 34 35 35 37 38 38 38 37 36 36
37 36 36 36 35 34 33 33 33 34 34 33 32 32 35 33 30 29 28 28 28 27 28 29 31 32 33 33 33 33 31 33 35 35 34 35 36 37 38 38 37 37 36
36 35 35 35 34 34 34 34 34 34 33 32 32 31 34 31 29 28 28 27 28 28 29 30 32 32 33 33 33 33 32 31 32 34 35 35 35 36 37 37 37 37 36
35 34 34 34 34 35 35 35 34 33 32 32 31 31 31 29 28 28 27 27 28 29 30 31 32 33 33 33 33 33 33 33 33 34 34 33 34 34 34 35 37 36 35
35 34 34 34 34 34 34 33 33 32 32 32 31 31 29 29 28 28 28 29 28 29 30 32 32 32 33 33 33 33 33 34 34 34 34 33 33 33 35 34 36 36 35
35 34 34 34 34 34 33 33 32 32 31 31 31 30 29 28 28 28 28 29 29 30 30 31 33 32 32 32 33 32 32 34 35 35 34 34 33 32 33 34 34 35 34
35 34 34 34 34 33 33 32 32 32 31 31 31 30 29 29 29 28 28 29 31 32 31 32 32 32 32 32 32 34 34 34 35 36 35 34 33 34 33 34 35 34 33
Lifted_Index
10 10 10 11 11 11 12 12 13 13 14 14 14 13 13 13 13 13 13 13 13 13 13 13 13 13 13 13 13 14 14 14 14 13 14 14 15 15 16 17 17 17 17
9 9 9 9 10 10 11 12 13 13 14 14 13 13 12 13 13 13 12 13 13 13 13 13 13 13 13 13 13 14 14 14 14 13 13 14 14 15 15 16 16 16 17
9 8 8 8 8 8 9 11 12 13 13 13 13 12 12 12 12 12 12 12 13 13 13 13 13 13 13 13 13 13 13 13 13 13 13 13 13 14 14 15 15 16 16
8 8 8 8 8 8 8 10 11 12 13 13 12 12 11 11 11 11 12 12 12 12 12 12 12 12 12 13 13 12 12 12 12 12 12 12 12 12 13 13 14 15 15
9 8 8 7 7 8 8 9 10 11 12 12 12 11 11 11 11 11 11 11 11 11 11 11 11 11 12 12 11 11 11 11 11 11 11 11 11 11 12 12 13 14 14
9 8 8 7 7 8 9 9 10 10 11 11 11 11 11 11 11 11 11 11 11 11 10 10 10 10 10 10 10 10 10 10 9 9 9 9 9 10 11 11 12 13 13
8 8 7 7 7 8 9 9 9 10 10 10 10 10 10 10 10 10 11 11 11 11 10 10 10 9 9 8 8 8 8 8 8 8 8 8 8 9 10 11 12 13 13
8 7 7 7 8 8 9 9 10 10 10 9 9 9 9 9 10 10 10 11 10 10 10 10 9 8 7 6 5 5 6 7 7 7 8 8 9 9 10 11 11 12 12
7 7 7 8 9 9 10 10 10 10 10 10 10 10 10 10 10 10 10 10 10 10 10 9 8 6 5 5 5 4 4 5 6 7 7 8 9 10 10 11 11 11 11
7 7 7 9 9 10 10 11 11 11 11 11 11 11 11 11 11 10 10 10 10 10 9 8 7 5 5 4 4 4 4 5 6 6 7 8 9 9 10 11 11 11 11
7 7 8 9 10 11 11 11 11 11 12 12 12 12 12 11 11 11 11 10 10 10 8 7 5 4 4 3 3 3 4 4 5 6 7 7 8 9 9 10 11 11 11
7 7 9 10 11 11 12 12 12 12 12 12 12 12 12 11 11 11 11 11 10 9 7 6 5 4 4 3 3 4 4 5 6 6 7 7 8 8 9 10 11 11 11
7 8 9 10 11 12 12 12 12 13 12 12 12 12 12 11 11 11 11 11 11 9 7 6 5 5 4 5 5 6 6 6 6 7 7 7 8 8 9 9 10 11 11
7 8 10 11 12 12 12 13 13 13 13 12 12 12 12 11 12 12 12 11 10 9 7 6 6 6 6 7 7 8 8 8 8 7 7 7 8 8 8 9 10 10 10
8 9 10 11 12 12 13 13 13 13 13 13 12 12 12 12 12 12 12 11 9 8 7 6 7 8 8 8 9 9 9 9 9 8 8 8 8 8 8 9 9 9 10
9 10 11 12 12 12 13 13 13 13 13 13 12 12 12 12 12 12 11 10 9 8 8 8 8 9 9 10 10 10 10 10 10 9 9 8 8 8 8 8 8 9 9
11 11 12 12 12 13 13 13 13 13 13 12 12 12 12 12 12 12 11 10 10 9 9 10 10 10 10 11 11 11 11 11 11 11 10 10 9 9 8 8 8 8 8
12 12 12 13 13 13 13 13 13 13 12 12 12 12 12 12 12 12 11 11 10 10 10 10 10 11 11 11 11 11 12 13 13 12 12 11 10 9 9 8 8 8 8
12 13 13 13 13 13 13 13 13 12 12 11 11 12 12 12 12 12 11 11 10 10 11 11 11 11 11 12 12 12 13 13 14 13 13 12 11 10 10 9 9 8 8
13 13 13 13 13 12 12 12 12 11 11 11 11 11 12 12 12 11 11 11 11 11 11 11 11 11 12 12 12 13 14 14 14 14 13 13 12 11 10 10 9 9 9
13 13 12 12 12 11 11 11 11 10 10 10 10 11 12 12 12 11 11 11 11 11 11 11 11 12 12 13 13 13 14 14 15 15 14 14 13 12 11 10 10 10 9
12 12 12 11 11 10 10 10 10 10 9 9 10 11 12 12 11 11 11 11 11 12 12 12 12 13 13 14 14 14 14 15 15 15 15 15 14 13 11 11 10 10 10
11 11 11 10 10 9 9 9 9 9 9 9 10 11 11 11 11 11 11 11 11 12 13 13 13 14 14 14 15 15 15 15 16 16 16 16 15 14 12 11 10 10 10
10 10 10 9 9 9 8 8 8 8 9 10 11 11 11 10 11 11 11 11 11 12 13 13 14 14 14 15 15 15 16 16 16 16 16 16 15 14 13 12 11 10 10
9 9 9 9 8 8 7 7 7 8 9 10 10 10 10 10 10 10 10 11 11 12 13 13 14 14 14 15 15 15 16 16 16 16 16 16 15 15 14 13 11 10 10
9 9 9 8 8 7 7 7 7 8 9 9 10 10 10 10 10 10 10 10 11 12 13 13 14 14 14 15 15 15 15 16 16 16 16 15 15 15 14 13 12 11 10